�v������,���r���O(���x),�����t���O,���r���O(���x),�����t���O,��1(���x),�����t���O,��2���x),�����t���O,�������x,�����t���O
9/1/2002 0:00,26.8,1,49.2,1,28.9,1,30,1,27.3,1
9/1/2002 0:15,26.6,1,48.8,1,29,1,30,1,27.4,1
9/1/2002 0:30,26.5,1,49.4,1,29.1,1,29.9,1,27.4,1
9/1/2002 0:45,26.3,1,49.8,1,29.2,1,29.9,1,27.4,1
9/1/2002 1:00,26.3,1,50.6,1,29.3,1,29.9,1,27.5,1
9/1/2002 1:15,26.3,1,54.9,1,29.3,1,29.9,1,27.4,1
9/1/2002 1:30,26.8,1,64.2,1,29.4,1,29.9,1,27.5,1
9/1/2002 1:45,27.1,1,65.9,1,29.4,1,29.8,1,27.5,1
9/1/2002 2:00,27.4,1,64.9,1,29.4,1,29.7,1,27.5,1
9/1/2002 2:15,27.6,1,66.3,1,29.4,1,29.6,1,27.5,1
9/1/2002 2:30,27.8,1,67.6,1,29.4,1,29.6,1,27.5,1
9/1/2002 2:45,28,1,68,1,29.4,1,29.6,1,27.5,1
9/1/2002 3:00,28.1,1,67.6,1,29.4,1,29.5,1,27.6,1
9/1/2002 3:15,28.2,1,68.3,1,29.4,1,29.5,1,27.6,1
9/1/2002 3:30,28.3,1,69.1,1,29.3,1,29.4,1,27.6,1
9/1/2002 3:45,28.3,1,69.1,1,29.3,1,29.4,1,27.6,1
9/1/2002 4:00,28.4,1,70,1,29.3,1,29.3,1,27.7,1
9/1/2002 4:15,28.4,1,70,1,29.2,1,29.3,1,27.7,1
9/1/2002 4:30,28.5,1,70.4,1,29.2,1,29.2,1,27.7,1
9/1/2002 4:45,28.5,1,70.2,1,29.2,1,29.2,1,27.7,1
9/1/2002 5:00,28.5,1,70.6,1,29.2,1,29.1,1,27.7,1
9/1/2002 5:15,28.5,1,70.5,1,29.2,1,29.1,1,27.8,1
9/1/2002 5:30,28.5,1,70.7,1,29.2,1,29.1,1,27.8,1
9/1/2002 5:45,28.5,1,70.8,1,29.2,1,29.1,1,27.8,1
9/1/2002 6:00,28.5,1,70.9,1,29.2,1,29.1,1,27.8,1
9/1/2002 6:15,28.5,1,71.6,1,29.2,1,29.1,1,27.8,1
9/1/2002 6:30,28.5,1,71.5,1,29.3,1,29.1,1,27.8,1
9/1/2002 6:45,28.5,1,71.6,1,29.4,1,29.2,1,27.9,1
9/1/2002 7:00,28.8,1,74.1,1,29.5,1,29.3,1,27.9,1
9/1/2002 7:15,29.2,1,72.7,1,29.6,1,29.4,1,27.6,1
9/1/2002 7:30,29.5,1,71.5,1,29.7,1,29.5,1,27.6,1
9/1/2002 7:45,29.8,1,70,1,29.8,1,29.7,1,27.5,1
9/1/2002 8:00,30,1,68.6,1,29.9,1,29.9,1,27.5,1
9/1/2002 8:15,30.4,1,67.4,1,30,1,30,1,27.5,1
9/1/2002 8:30,30.5,1,66.3,1,30,1,30,1,27.5,1
9/1/2002 8:45,30.5,1,65.2,1,30.1,1,30.1,1,27.6,1
9/1/2002 9:00,30.6,1,62.8,1,30.2,1,30.3,1,27.3,1
9/1/2002 9:15,30.8,1,63.4,1,30.3,1,30.3,1,27.3,1
9/1/2002 9:30,31.1,1,63.3,1,30.5,1,30.6,1,27.4,1
9/1/2002 9:45,31.4,1,59.7,1,30.8,1,30.9,1,27.4,1
9/1/2002 10:00,31.7,1,58.5,1,31,1,30.9,1,27.5,1
9/1/2002 10:15,31.8,1,57.9,1,31.1,1,31.1,1,27.5,1
9/1/2002 10:30,32,1,57.3,1,31.4,1,31.2,1,27.5,1
9/1/2002 10:45,32.1,1,55.5,1,31.5,1,31.3,1,27.6,1
9/1/2002 11:00,32.3,1,51.5,1,31.8,1,31.5,1,27.6,1
9/1/2002 11:15,32.6,1,52.1,1,31.9,1,31.6,1,27.4,1
9/1/2002 11:30,32.5,1,51.5,1,32.1,1,31.7,1,27.5,1
9/1/2002 11:45,32.5,1,50.4,1,32.1,1,31.9,1,27.5,1
9/1/2002 12:00,32.5,1,50.5,1,32.1,1,32.1,1,27.5,1
9/1/2002 12:15,32.5,1,51,1,32.2,1,32.2,1,27.5,1
9/1/2002 12:30,32.5,1,51.3,1,32.3,1,32.4,1,27.6,1
9/1/2002 12:45,32.5,1,49.4,1,32.3,1,32.5,1,27.6,1
9/1/2002 13:00,32.6,1,50.5,1,32.3,1,32.5,1,27.6,1
9/1/2002 13:15,32.6,1,49.8,1,32.4,1,32.5,1,27.6,1
9/1/2002 13:30,32.6,1,49.8,1,32.4,1,32.5,1,27.7,1
9/1/2002 13:45,32.6,1,49.4,1,32.5,1,32.6,1,27.7,1
9/1/2002 14:00,32.7,1,49.7,1,32.5,1,32.6,1,27.8,1
9/1/2002 14:15,32.8,1,48,1,32.6,1,32.3,1,27.8,1
9/1/2002 14:30,32.8,1,48.7,1,32.6,1,31.7,1,27.8,1
9/1/2002 14:45,32.9,1,49.6,1,32.6,1,31.1,1,27.8,1
9/1/2002 15:00,32.9,1,48.5,1,32.6,1,30.7,1,27.9,1
9/1/2002 15:15,32.8,1,49.7,1,32.6,1,30.2,1,27.9,1
9/1/2002 15:30,32.8,1,50.4,1,32.6,1,30.3,1,27.9,1
9/1/2002 15:45,32.7,1,51.3,1,32.6,1,30.9,1,28,1
9/1/2002 16:00,32.7,1,52,1,32.5,1,31.3,1,28,1
9/1/2002 16:15,32.6,1,53.3,1,32.5,1,31.5,1,28,1
9/1/2002 16:30,32.5,1,54.7,1,32.5,1,31.7,1,27.1,1
9/1/2002 16:45,32.4,1,55.9,1,32.5,1,31.7,1,27.2,1
9/1/2002 17:00,32.2,1,57.7,1,32.5,1,31.8,1,27.2,1
9/1/2002 17:15,32.1,1,57.5,1,32.5,1,31.8,1,27.3,1
9/1/2002 17:30,31.8,1,56.6,1,32.4,1,31.7,1,27.3,1
9/1/2002 17:45,31.7,1,55.4,1,32.4,1,31.7,1,27.4,1
9/1/2002 18:00,31.7,1,52.9,1,32.3,1,31.6,1,27.4,1
9/1/2002 18:15,31.6,1,52.2,1,32.1,1,31.5,1,27.5,1
9/1/2002 18:30,31.5,1,51.9,1,32,1,31.5,1,27.6,1
9/1/2002 18:45,31.4,1,52.5,1,31.9,1,31.4,1,27.6,1
9/1/2002 19:00,31.3,1,52.1,1,31.8,1,31.4,1,27.7,1
9/1/2002 19:15,31.3,1,54.6,1,31.7,1,31.2,1,27.7,1
9/1/2002 19:30,31.3,1,57.3,1,31.5,1,31.1,1,27.6,1
9/1/2002 19:45,31.3,1,60.8,1,31.3,1,31,1,27.7,1
9/1/2002 20:00,31.4,1,61.9,1,31.3,1,31.1,1,27.7,1
9/1/2002 20:15,31.4,1,62.2,1,31.1,1,31.1,1,27.8,1
9/1/2002 20:30,31.4,1,62,1,30.9,1,31.1,1,27.8,1
9/1/2002 20:45,31.5,1,62,1,30.5,1,31.1,1,27.8,1
9/1/2002 21:00,31.6,1,62.3,1,30.1,1,30.9,1,27.9,1
9/1/2002 21:15,31.6,1,62.3,1,29.8,1,30.8,1,27.9,1
9/1/2002 21:30,31.6,1,62.2,1,29.7,1,30.9,1,27.9,1
9/1/2002 21:45,31.4,1,62.9,1,29.7,1,30.8,1,28,1
9/1/2002 22:00,31.3,1,63.8,1,29.7,1,30.8,1,28,1
9/1/2002 22:15,31.3,1,63.8,1,29.7,1,30.9,1,26.7,1
9/1/2002 22:30,31.3,1,63.9,1,29.7,1,30.9,1,26.8,1
9/1/2002 22:45,31,1,65.7,1,29.7,1,30.9,1,26.8,1
9/1/2002 23:00,31,1,64.5,1,29.6,1,30.8,1,26.7,1
9/1/2002 23:15,29.8,1,50.1,1,29.6,1,30.7,1,26.7,1
9/1/2002 23:30,28.8,1,44.4,1,29.6,1,30.6,1,26.8,1
9/1/2002 23:45,27.8,1,42.1,1,29.5,1,30.5,1,26.8,1
9/2/2002 0:00,27,1,40.3,1,29.5,1,30.4,1,26.8,1
9/2/2002 0:15,26.1,1,39.6,1,29.4,1,30.3,1,26.9,1
9/2/2002 0:30,25.7,1,42.8,1,29.4,1,30.3,1,26.9,1
9/2/2002 0:45,25.8,1,47.7,1,29.4,1,30.2,1,26.9,1
9/2/2002 1:00,26.3,1,58.3,1,29.4,1,30.2,1,27.2,1
9/2/2002 1:15,26.8,1,62.6,1,29.4,1,30,1,27.3,1
9/2/2002 1:30,27.2,1,62.6,1,29.4,1,30,1,27.3,1
9/2/2002 1:45,27.5,1,62.8,1,29.5,1,30,1,27.3,1
9/2/2002 2:00,27.8,1,63.4,1,29.6,1,30,1,27.3,1
9/2/2002 2:15,28,1,63.7,1,29.7,1,30,1,27.4,1
9/2/2002 2:30,28.2,1,64.3,1,29.8,1,29.8,1,27.4,1
9/2/2002 2:45,28.3,1,64.9,1,29.8,1,29.9,1,27.4,1
9/2/2002 3:00,28.5,1,65.8,1,29.8,1,29.9,1,27.5,1
9/2/2002 3:15,28.6,1,66.6,1,29.8,1,29.9,1,27.5,1
9/2/2002 3:30,28.6,1,67,1,29.8,1,29.9,1,27.5,1
9/2/2002 3:45,28.7,1,67,1,29.7,1,29.9,1,27.5,1
9/2/2002 4:00,28.8,1,67.1,1,29.7,1,29.9,1,27.6,1
9/2/2002 4:15,28.8,1,67.1,1,29.7,1,29.9,1,27.6,1
9/2/2002 4:30,28.8,1,67.2,1,29.6,1,29.9,1,27.6,1
9/2/2002 4:45,28.9,1,66.7,1,29.7,1,29.9,1,27.6,1
9/2/2002 5:00,28.9,1,66.9,1,29.7,1,29.9,1,27.7,1
9/2/2002 5:15,28.9,1,67,1,29.7,1,29.8,1,27.7,1
9/2/2002 5:30,28.9,1,67,1,29.7,1,29.8,1,27.7,1
9/2/2002 5:45,28.9,1,67,1,29.7,1,29.8,1,27.7,1
9/2/2002 6:00,28.9,1,67.1,1,29.7,1,29.8,1,27.8,1
9/2/2002 6:15,28.8,1,73.8,1,29.8,1,29.8,1,27.3,1
9/2/2002 6:30,28.7,1,76.2,1,29.9,1,29.8,1,27.5,1
9/2/2002 6:45,28.8,1,76.6,1,30,1,29.9,1,27.5,1
9/2/2002 7:00,29,1,75.2,1,30.1,1,30,1,27.5,1
9/2/2002 7:15,29.4,1,73.4,1,30.2,1,30.2,1,27.6,1
9/2/2002 7:30,29.7,1,72.4,1,30.3,1,30.3,1,27.6,1
9/2/2002 7:45,30,1,71.4,1,30.3,1,30.3,1,27.6,1
9/2/2002 8:00,30.4,1,68.6,1,30.5,1,30.6,1,27.6,1
9/2/2002 8:15,30.9,1,66.8,1,30.7,1,30.9,1,27.6,1
9/2/2002 8:30,31.3,1,64.3,1,30.2,1,31.1,1,27.6,1
9/2/2002 8:45,31.5,1,61.5,1,29.4,1,31.3,1,27.5,1
9/2/2002 9:00,31.8,1,60.5,1,28.7,1,31.4,1,27.5,1
9/2/2002 9:15,32.1,1,59.5,1,28.2,1,31.6,1,27.4,1
9/2/2002 9:30,32.2,1,57.4,1,28.1,1,31.7,1,27.4,1
9/2/2002 9:45,32.5,1,56,1,27.9,1,32,1,27.5,1
9/2/2002 10:00,32.9,1,55.2,1,27.7,1,32.2,1,27.5,1
9/2/2002 10:15,33,1,52.7,1,28.3,1,32.5,1,27.5,1
9/2/2002 10:30,33,1,54.2,1,29.1,1,32.7,1,27.5,1
9/2/2002 10:45,33,1,51.7,1,29.8,1,32.8,1,27.5,1
9/2/2002 11:00,33,1,50.8,1,30.5,1,32.4,1,27.6,1
9/2/2002 11:15,33.1,1,51.1,1,31,1,31.9,1,27.5,1
9/2/2002 11:30,33.3,1,51.9,1,31.4,1,31.3,1,27.8,1
9/2/2002 11:45,33.3,1,50.3,1,31.6,1,30.9,1,27.8,1
9/2/2002 12:00,33.4,1,50.2,1,32,1,30.5,1,27.8,1
9/2/2002 12:15,33.5,1,50.6,1,32.1,1,30.1,1,27.8,1
9/2/2002 12:30,33.6,1,51.8,1,32.3,1,29.8,1,27.9,1
9/2/2002 12:45,33.7,1,50.2,1,32.4,1,29.5,1,27.9,1
9/2/2002 13:00,33.6,1,47.6,1,32.5,1,29.2,1,27.9,1
9/2/2002 13:15,33.6,1,48.6,1,32.6,1,29,1,28,1
9/2/2002 13:30,33.7,1,49.2,1,32.7,1,29.1,1,28,1
9/2/2002 13:45,33.8,1,49.4,1,32.8,1,29.8,1,28,1
9/2/2002 14:00,33.8,1,49.6,1,32.9,1,30.7,1,28.1,1
9/2/2002 14:15,33.8,1,50.5,1,32.9,1,31.1,1,28.1,1
9/2/2002 14:30,34,1,50.6,1,33,1,31.5,1,28.1,1
9/2/2002 14:45,34,1,52.3,1,33.1,1,31.1,1,28.2,1
9/2/2002 15:00,33.9,1,52.1,1,33.1,1,30.7,1,28.2,1
9/2/2002 15:15,33.9,1,52.1,1,33.2,1,30.2,1,27.9,1
9/2/2002 15:30,33.9,1,51.7,1,33.2,1,29.8,1,27.9,1
9/2/2002 15:45,33.8,1,51.8,1,33.2,1,29.8,1,27.9,1
9/2/2002 16:00,33.6,1,51.9,1,33.3,1,29.5,1,27.7,1
9/2/2002 16:15,32.6,1,43.4,1,33.3,1,28.9,1,27.8,1
9/2/2002 16:30,31.6,1,43.6,1,33.3,1,28.7,1,27.8,1
9/2/2002 16:45,30.7,1,41.1,1,33.3,1,28.9,1,27.8,1
9/2/2002 17:00,29.9,1,40.1,1,33.2,1,29.1,1,27.9,1
9/2/2002 17:15,29.7,1,50.2,1,33.1,1,29.5,1,27.9,1
9/2/2002 17:30,29.7,1,57.7,1,33,1,30.1,1,28,1
9/2/2002 17:45,29.6,1,53.7,1,32.8,1,30.4,1,28,1
9/2/2002 18:00,29.3,1,59.8,1,32.7,1,30.7,1,28.1,1
9/2/2002 18:15,29.4,1,58.2,1,32.5,1,30.8,1,28.1,1
9/2/2002 18:30,29.3,1,59.9,1,32.3,1,30.8,1,28.1,1
9/2/2002 18:45,29,1,57,1,32.1,1,30,1,28.2,1
9/2/2002 19:00,28.9,1,55.6,1,32,1,29.4,1,28.2,1
9/2/2002 19:15,28.5,1,54.4,1,31.8,1,29,1,28.3,1
9/2/2002 19:30,28.2,1,51.9,1,31.7,1,29.2,1,28.3,1
9/2/2002 19:45,27.7,1,47.3,1,31.5,1,29.7,1,28.4,1
9/2/2002 20:00,27.1,1,46.3,1,31.2,1,30,1,28.4,1
9/2/2002 20:15,27,1,52.8,1,30.9,1,30.2,1,27.3,1
9/2/2002 20:30,26.3,1,46.5,1,30.5,1,30.3,1,27.3,1
9/2/2002 20:45,25.9,1,50.6,1,30.4,1,30.1,1,27.3,1
9/2/2002 21:00,26.1,1,58.2,1,30.3,1,29.6,1,27.3,1
9/2/2002 21:15,26.8,1,63.5,1,30.2,1,29.7,1,27.4,1
9/2/2002 21:30,27.1,1,63.3,1,30.2,1,29.6,1,27.4,1
9/2/2002 21:45,27.2,1,60.8,1,30.2,1,29.6,1,27.5,1
9/2/2002 22:00,27.3,1,60.4,1,30.3,1,29.5,1,27.5,1
9/2/2002 22:15,27.4,1,60.6,1,30.3,1,29.5,1,27.5,1
9/2/2002 22:30,27.5,1,61.2,1,30.3,1,29.5,1,27.6,1
9/2/2002 22:45,27.5,1,60.4,1,30.3,1,29.7,1,27.6,1
9/2/2002 23:00,27.6,1,63.5,1,30.3,1,29.8,1,27.4,1
9/2/2002 23:15,27.7,1,64.7,1,30.3,1,30,1,27.5,1
9/2/2002 23:30,27.9,1,64.6,1,30.3,1,30.1,1,27.5,1
9/2/2002 23:45,28.1,1,67.4,1,30.2,1,30.1,1,27.5,1
9/3/2002 0:00,28.3,1,68.4,1,30.1,1,29.9,1,27.6,1
9/3/2002 0:15,27.6,1,53.3,1,30,1,29.9,1,27.6,1
9/3/2002 0:30,26.8,1,48.2,1,29.9,1,29.9,1,27.6,1
9/3/2002 0:45,26.2,1,46.7,1,29.8,1,29.9,1,27.7,1
9/3/2002 1:00,25.5,1,45.8,1,29.8,1,29.8,1,27.7,1
9/3/2002 1:15,25.2,1,49.9,1,29.7,1,29.8,1,27.6,1
9/3/2002 1:30,25.8,1,59.2,1,29.7,1,29.9,1,27.6,1
9/3/2002 1:45,26.1,1,59.3,1,29.7,1,30,1,27.6,1
9/3/2002 2:00,26.4,1,59.9,1,29.7,1,30,1,27.7,1
9/3/2002 2:15,26.7,1,59.9,1,29.6,1,29.9,1,27.7,1
9/3/2002 2:30,26.9,1,59.8,1,29.6,1,29.9,1,27.7,1
9/3/2002 2:45,27.1,1,59.9,1,29.6,1,29.9,1,27.8,1
9/3/2002 3:00,27.2,1,60,1,29.5,1,29.9,1,27.8,1
9/3/2002 3:15,27.4,1,60.2,1,29.5,1,29.9,1,27.8,1
9/3/2002 3:30,27.5,1,60.4,1,29.5,1,29.9,1,27.8,1
9/3/2002 3:45,27.6,1,60.7,1,29.5,1,30,1,27.8,1
9/3/2002 4:00,27.7,1,61.3,1,29.5,1,30,1,27.9,1
9/3/2002 4:15,27.8,1,61.5,1,29.5,1,30,1,27.9,1
9/3/2002 4:30,27.9,1,61.7,1,29.5,1,30,1,27.9,1
9/3/2002 4:45,28,1,63,1,29.5,1,30,1,27.9,1
9/3/2002 5:00,28.1,1,63.4,1,29.5,1,29.9,1,28,1
9/3/2002 5:15,28.1,1,63.7,1,29.5,1,29.9,1,28,1
9/3/2002 5:30,28.3,1,67.6,1,29.5,1,29.9,1,28,1
9/3/2002 5:45,28.5,1,70.3,1,29.5,1,29.8,1,28,1
9/3/2002 6:00,28.7,1,73,1,29.4,1,29.9,1,28,1
9/3/2002 6:15,28.5,1,76.6,1,29.4,1,29.8,1,28.1,1
9/3/2002 6:30,28.5,1,77.8,1,29.4,1,29.8,1,28.1,1
9/3/2002 6:45,28.4,1,78.1,1,29.5,1,29.8,1,28.1,1
9/3/2002 7:00,28.7,1,77.7,1,29.6,1,29.9,1,28.1,1
9/3/2002 7:15,29.3,1,76.7,1,29.7,1,30.1,1,28.1,1
9/3/2002 7:30,29.5,1,74.1,1,29.8,1,30.2,1,28.1,1
9/3/2002 7:45,30.1,1,71.8,1,29.9,1,30.4,1,28.2,1
9/3/2002 8:00,30,1,71,1,29.9,1,30.5,1,28,1
9/3/2002 8:15,30.2,1,69.6,1,30,1,30.6,1,28.1,1
9/3/2002 8:30,30.6,1,67.9,1,30.2,1,30.9,1,28.1,1
9/3/2002 8:45,30.9,1,65.2,1,30.3,1,30.9,1,28.1,1
9/3/2002 9:00,31,1,64.8,1,30.3,1,30.9,1,28.1,1
9/3/2002 9:15,31.1,1,64.8,1,30.5,1,31,1,28.1,1
9/3/2002 9:30,31.1,1,64.2,1,30.5,1,31,1,28.1,1
9/3/2002 9:45,31,1,64.6,1,30.6,1,31,1,27.6,1
9/3/2002 10:00,30.9,1,64.8,1,30.6,1,30.9,1,27.6,1
9/3/2002 10:15,31,1,65.3,1,30.6,1,30.9,1,27.3,1
9/3/2002 10:30,31.1,1,64.2,1,30.8,1,31.2,1,27.3,1
9/3/2002 10:45,31.2,1,63.8,1,30.8,1,31.2,1,27.3,1
9/3/2002 11:00,31.2,1,63.6,1,30.8,1,31.2,1,27.3,1
9/3/2002 11:15,31.2,1,64.3,1,30.9,1,31.2,1,27.3,1
9/3/2002 11:30,31.2,1,64,1,30.9,1,31.3,1,27.4,1
9/3/2002 11:45,31.2,1,62.4,1,31.1,1,31.4,1,27.4,1
9/3/2002 12:00,31.3,1,62.5,1,31.2,1,31.6,1,27.4,1
9/3/2002 12:15,31.4,1,60.2,1,31.4,1,31.9,1,27.5,1
9/3/2002 12:30,31.6,1,58,1,31.5,1,32.1,1,27.5,1
9/3/2002 12:45,31.7,1,56.6,1,31.8,1,32.3,1,27.5,1
9/3/2002 13:00,31.8,1,56.7,1,32,1,32.4,1,27.5,1
9/3/2002 13:15,30.9,1,48.6,1,32.1,1,32.5,1,27.5,1
9/3/2002 13:30,30.1,1,46.1,1,32.2,1,32.6,1,27.5,1
9/3/2002 13:45,29.4,1,44.8,1,32.4,1,32.7,1,27.5,1
9/3/2002 14:00,28.8,1,43,1,32.6,1,32.9,1,27.5,1
9/3/2002 14:15,28.2,1,41.7,1,32.6,1,32.9,1,27.6,1
9/3/2002 14:30,28.8,1,55.3,1,32.7,1,33,1,27.6,1
9/3/2002 14:45,30.4,1,52.3,1,32.7,1,33,1,28,1
9/3/2002 15:00,31.2,1,49.4,1,32.6,1,32.9,1,28,1
9/3/2002 15:15,31.7,1,48.9,1,32.6,1,32.9,1,28,1
9/3/2002 15:30,31.9,1,48.7,1,32.6,1,32.9,1,28,1
9/3/2002 15:45,32.1,1,47.7,1,32.6,1,32.9,1,28.1,1
9/3/2002 16:00,32.2,1,50,1,32.5,1,32.8,1,28.1,1
9/3/2002 16:15,32.3,1,49.8,1,32.6,1,32.8,1,28.1,1
9/3/2002 16:30,32.3,1,46.9,1,32.6,1,32.7,1,28.1,1
9/3/2002 16:45,32.3,1,51.2,1,32.5,1,32.7,1,27.8,1
9/3/2002 17:00,32.4,1,53.4,1,32.6,1,32.7,1,27.8,1
9/3/2002 17:15,32.3,1,54.3,1,32.6,1,32.6,1,27.8,1
9/3/2002 17:30,32.2,1,52.5,1,32.5,1,32.5,1,27.9,1
9/3/2002 17:45,32,1,50.4,1,32.4,1,32.3,1,27.9,1
9/3/2002 18:00,31.8,1,53.8,1,32.2,1,32.1,1,28,1
9/3/2002 18:15,31.7,1,57.4,1,32.1,1,32,1,28,1
9/3/2002 18:30,31.6,1,57,1,32,1,32,1,27,1
9/3/2002 18:45,31.6,1,57.7,1,31.9,1,31.9,1,27,1
9/3/2002 19:00,31.5,1,59.6,1,31.8,1,31.7,1,27.1,1
9/3/2002 19:15,31.5,1,58.9,1,31.7,1,31.7,1,27.1,1
9/3/2002 19:30,31.4,1,60.2,1,31.5,1,31.7,1,27.2,1
9/3/2002 19:45,31.2,1,61.8,1,31.4,1,31.5,1,27.2,1
9/3/2002 20:00,31.1,1,64.6,1,31.4,1,31.4,1,27.3,1
9/3/2002 20:15,31.2,1,65.1,1,31.3,1,31.4,1,27.3,1
9/3/2002 20:30,31,1,66.6,1,31.2,1,31.4,1,27.4,1
9/3/2002 20:45,31,1,68.2,1,31.1,1,31.3,1,27.4,1
9/3/2002 21:00,30.9,1,68.2,1,31,1,31.4,1,27.6,1
9/3/2002 21:15,30.8,1,68.1,1,30.9,1,31.5,1,27.7,1
9/3/2002 21:30,30.8,1,68.6,1,30.8,1,31.5,1,27.7,1
9/3/2002 21:45,30.7,1,68.6,1,30.8,1,31.5,1,27.5,1
9/3/2002 22:00,30.5,1,70,1,30.7,1,31.5,1,27.6,1
9/3/2002 22:15,30.6,1,69.9,1,30.7,1,31.3,1,27.6,1
9/3/2002 22:30,30.7,1,69.8,1,30.6,1,31.3,1,27.6,1
9/3/2002 22:45,30.8,1,69.6,1,30.5,1,31.2,1,27.6,1
9/3/2002 23:00,30.2,1,54.3,1,30.4,1,31.3,1,27.7,1
9/3/2002 23:15,29.3,1,46.7,1,30.4,1,31.3,1,27.7,1
9/3/2002 23:30,28.9,1,49.5,1,30.3,1,31.2,1,27.8,1
9/3/2002 23:45,28.7,1,51.8,1,30.2,1,31.1,1,27.8,1
9/4/2002 0:00,28.3,1,50.8,1,30.2,1,31,1,27.8,1
9/4/2002 0:15,28,1,50.5,1,30.2,1,30.9,1,27.8,1
9/4/2002 0:30,27.7,1,50.3,1,30.1,1,30.8,1,27.8,1
9/4/2002 0:45,28,1,62.7,1,30,1,30.7,1,27.8,1
9/4/2002 1:00,28.3,1,64.5,1,29.9,1,30.6,1,27.8,1
9/4/2002 1:15,28.5,1,65.4,1,29.9,1,30.6,1,27.8,1
9/4/2002 1:30,28.7,1,65.1,1,29.8,1,30.5,1,27.8,1
9/4/2002 1:45,28.9,1,66.3,1,29.8,1,30.5,1,27.9,1
9/4/2002 2:00,29.1,1,66.9,1,29.8,1,30.5,1,27.9,1
9/4/2002 2:15,29.2,1,67.1,1,29.8,1,30.4,1,27.9,1
9/4/2002 2:30,29.3,1,67.2,1,29.8,1,30.4,1,27.9,1
9/4/2002 2:45,29.4,1,67.1,1,29.7,1,30.3,1,28,1
9/4/2002 3:00,29.4,1,67.9,1,29.6,1,30.3,1,28,1
9/4/2002 3:15,29.5,1,68.5,1,29.6,1,30.2,1,28,1
9/4/2002 3:30,29.5,1,68.5,1,29.6,1,30.2,1,28,1
9/4/2002 3:45,29.6,1,69.5,1,29.6,1,30.2,1,28.1,1
9/4/2002 4:00,29.6,1,70.1,1,29.5,1,30.1,1,28.1,1
9/4/2002 4:15,29.6,1,69.8,1,29.5,1,30,1,28.1,1
9/4/2002 4:30,29.6,1,70.3,1,29.5,1,30,1,28.1,1
9/4/2002 4:45,29.6,1,70.6,1,29.4,1,29.9,1,28.1,1
9/4/2002 5:00,29.6,1,70.7,1,29.4,1,29.9,1,28.2,1
9/4/2002 5:15,29.6,1,70.6,1,29.4,1,29.9,1,28.2,1
9/4/2002 5:30,29.6,1,70.8,1,29.5,1,29.8,1,28.2,1
9/4/2002 5:45,29.6,1,71.1,1,29.5,1,29.8,1,28.2,1
9/4/2002 6:00,29.6,1,71.4,1,29.5,1,29.8,1,28.3,1
9/4/2002 6:15,29.5,1,74.2,1,29.6,1,29.8,1,28.3,1
9/4/2002 6:30,29.4,1,75,1,29.8,1,29.8,1,28.3,1
9/4/2002 6:45,29.4,1,74.4,1,29.9,1,29.9,1,28,1
9/4/2002 7:00,29.6,1,73.7,1,29.9,1,30,1,28.1,1
9/4/2002 7:15,29.8,1,72,1,30,1,30.1,1,28.1,1
9/4/2002 7:30,30.1,1,71,1,30.1,1,30.3,1,28.1,1
9/4/2002 7:45,30.5,1,69.2,1,30.2,1,30.5,1,28.1,1
9/4/2002 8:00,30.8,1,66.4,1,30.3,1,30.7,1,28.1,1
9/4/2002 8:15,31,1,63.5,1,30.5,1,30.8,1,28.1,1
9/4/2002 8:30,31.3,1,61.5,1,30.6,1,31,1,28.1,1
9/4/2002 8:45,31.8,1,61.2,1,30.8,1,31.3,1,28.1,1
9/4/2002 9:00,32.1,1,60.9,1,31.1,1,31.5,1,27.1,1
9/4/2002 9:15,32.3,1,60.3,1,31.2,1,31.7,1,27.2,1
9/4/2002 9:30,32.5,1,59.5,1,31.4,1,31.8,1,27.2,1
9/4/2002 9:45,32.6,1,59.3,1,31.6,1,32,1,27.3,1
9/4/2002 10:00,32.7,1,60,1,31.7,1,32.2,1,27.3,1
9/4/2002 10:15,32.7,1,58.8,1,31.8,1,32.3,1,27.3,1
9/4/2002 10:30,32.7,1,59.7,1,31.9,1,32.3,1,27.4,1
9/4/2002 10:45,32.6,1,58.8,1,32,1,32.3,1,27.5,1
9/4/2002 11:00,32.6,1,58.4,1,32,1,32.3,1,27.5,1
9/4/2002 11:15,32.6,1,58,1,32,1,32.3,1,27.5,1
9/4/2002 11:30,32.6,1,57.4,1,32,1,32.3,1,27.6,1
9/4/2002 11:45,32.5,1,60,1,32.1,1,32.3,1,27.6,1
9/4/2002 12:00,32.5,1,60.1,1,32.1,1,32.3,1,27.6,1
9/4/2002 12:15,32.5,1,59.6,1,32.1,1,32.3,1,27.7,1
9/4/2002 12:30,32.5,1,60.1,1,32.1,1,32.3,1,27.7,1
9/4/2002 12:45,32.6,1,59.6,1,32.1,1,32.4,1,27.7,1
9/4/2002 13:00,32.5,1,58.9,1,32.1,1,32.4,1,27.8,1
9/4/2002 13:15,32.7,1,66,1,32.3,1,32.4,1,28,1
9/4/2002 13:30,31.8,1,54.2,1,32.3,1,32.4,1,28,1
9/4/2002 13:45,30.9,1,49.2,1,32.3,1,32.4,1,28,1
9/4/2002 14:00,30.1,1,43.2,1,32.4,1,32.4,1,28.1,1
9/4/2002 14:15,30.2,1,68.5,1,32.3,1,32.4,1,28.1,1
9/4/2002 14:30,30.5,1,75.2,1,32.3,1,32.3,1,28.2,1
9/4/2002 14:45,30.8,1,75.5,1,32.3,1,32.3,1,28.2,1
9/4/2002 15:00,31,1,74.4,1,32.4,1,32.3,1,28.2,1
9/4/2002 15:15,31.4,1,75.7,1,32.5,1,32.3,1,28.2,1
9/4/2002 15:30,31.7,1,67.8,1,32.5,1,32.4,1,28.3,1
9/4/2002 15:45,31.9,1,61.1,1,32.6,1,32.4,1,28.2,1
9/4/2002 16:00,32,1,61.7,1,32.6,1,32.3,1,28.2,1
9/4/2002 16:15,31.8,1,59.4,1,32.6,1,32.3,1,28.2,1
9/4/2002 16:30,31.8,1,58.6,1,32.6,1,32.1,1,28.3,1
9/4/2002 16:45,31.7,1,58,1,32.5,1,32.1,1,28.3,1
9/4/2002 17:00,31.6,1,59.1,1,32.5,1,32,1,28.3,1
9/4/2002 17:15,31.6,1,60.9,1,32.4,1,32,1,28.3,1
9/4/2002 17:30,31.4,1,60.4,1,32.3,1,32,1,28.4,1
9/4/2002 17:45,31.3,1,59.3,1,32.3,1,31.9,1,28.4,1
9/4/2002 18:00,31.1,1,57,1,32.2,1,31.7,1,28.4,1
9/4/2002 18:15,31.1,1,57.5,1,32,1,31.6,1,27.9,1
9/4/2002 18:30,31,1,60.5,1,31.8,1,31.6,1,27.9,1
9/4/2002 18:45,31,1,61.2,1,31.6,1,31.6,1,28,1
9/4/2002 19:00,31.1,1,63.1,1,31.6,1,31.7,1,28,1
9/4/2002 19:15,31.2,1,63.2,1,31.4,1,31.6,1,28,1
9/4/2002 19:30,31.3,1,64.2,1,31.3,1,31.6,1,28.1,1
9/4/2002 19:45,31.3,1,64.6,1,31.1,1,31.6,1,28.1,1
9/4/2002 20:00,31.3,1,65.1,1,30.9,1,31.6,1,27.8,1
9/4/2002 20:15,31.3,1,65.5,1,30.8,1,31.7,1,27.8,1
9/4/2002 20:30,31.2,1,66.7,1,30.4,1,31.7,1,27.8,1
9/4/2002 20:45,31.1,1,67.1,1,30.1,1,31.8,1,27.9,1
9/4/2002 21:00,30.9,1,67,1,29.9,1,31.7,1,27.9,1
9/4/2002 21:15,30.8,1,67,1,29.9,1,31.7,1,27.9,1
9/4/2002 21:30,30.8,1,67,1,29.9,1,31.5,1,28,1
9/4/2002 21:45,30.8,1,67.2,1,29.9,1,30.9,1,28,1
9/4/2002 22:00,31,1,68.4,1,29.9,1,30.2,1,28,1
9/4/2002 22:15,31.1,1,67.4,1,29.8,1,29.9,1,28.1,1
9/4/2002 22:30,31.1,1,66.6,1,29.8,1,30.1,1,28.1,1
9/4/2002 22:45,31.1,1,67.3,1,29.7,1,30.3,1,28.1,1
9/4/2002 23:00,31.1,1,67.1,1,29.7,1,30.4,1,28.1,1
9/4/2002 23:15,31.1,1,67.2,1,29.6,1,30.5,1,28.2,1
9/4/2002 23:30,31.1,1,67.3,1,29.6,1,30.5,1,28.2,1
9/4/2002 23:45,31,1,67.7,1,29.5,1,30.6,1,28.2,1
9/5/2002 0:00,30.9,1,67.6,1,29.4,1,30.6,1,27.7,1
9/5/2002 0:15,30.8,1,68.1,1,29.4,1,30.5,1,27.7,1
9/5/2002 0:30,30.7,1,68.5,1,29.3,1,30.4,1,27.7,1
9/5/2002 0:45,30.7,1,68.9,1,29.3,1,30.2,1,27.6,1
9/5/2002 1:00,30.6,1,67.4,1,29.4,1,30.2,1,27.6,1
9/5/2002 1:15,30.5,1,67.6,1,29.5,1,30.2,1,27.6,1
9/5/2002 1:30,30.5,1,67.6,1,29.6,1,30,1,27.6,1
9/5/2002 1:45,30.4,1,67.5,1,29.6,1,29.8,1,27.7,1
9/5/2002 2:00,30.4,1,67.6,1,29.7,1,29.8,1,27.7,1
9/5/2002 2:15,30.3,1,67.4,1,29.7,1,29.7,1,27.7,1
9/5/2002 2:30,30.3,1,67.7,1,29.7,1,29.6,1,27.7,1
9/5/2002 2:45,30.2,1,67.5,1,29.7,1,29.6,1,27.8,1
9/5/2002 3:00,30.2,1,67.7,1,29.7,1,29.6,1,27.8,1
9/5/2002 3:15,30.1,1,67.8,1,29.7,1,29.5,1,27.8,1
9/5/2002 3:30,30.1,1,67.8,1,29.8,1,29.5,1,27.8,1
9/5/2002 3:45,30,1,67.8,1,29.8,1,29.4,1,27.9,1
9/5/2002 4:00,30,1,67.6,1,29.7,1,29.4,1,27.9,1
9/5/2002 4:15,29.9,1,67.7,1,29.7,1,29.2,1,27.9,1
9/5/2002 4:30,29.9,1,67.8,1,29.7,1,29.2,1,28,1
9/5/2002 4:45,29.9,1,67.9,1,29.6,1,29.1,1,28,1
9/5/2002 5:00,29.8,1,67.9,1,29.6,1,29.1,1,28,1
9/5/2002 5:15,29.8,1,67.8,1,29.6,1,29.1,1,28,1
9/5/2002 5:30,29.8,1,67.9,1,29.5,1,29,1,28,1
9/5/2002 5:45,29.7,1,67.9,1,29.5,1,28.9,1,28.1,1
9/5/2002 6:00,29.7,1,67.8,1,29.5,1,28.8,1,28.1,1
9/5/2002 6:15,29.6,1,69.4,1,29.5,1,28.7,1,28.1,1
9/5/2002 6:30,29.4,1,69.8,1,29.5,1,28.7,1,28.1,1
9/5/2002 6:45,29,1,70.1,1,29.4,1,28.5,1,27.9,1
9/5/2002 7:00,28.8,1,70.5,1,29.3,1,28.5,1,27.9,1
9/5/2002 7:15,28.6,1,70.8,1,29.3,1,28.4,1,27.9,1
9/5/2002 7:30,28.1,1,71.2,1,29.3,1,28.4,1,27.9,1
9/5/2002 7:45,28,1,71.9,1,29.4,1,28.5,1,27.8,1
9/5/2002 8:00,28.1,1,71,1,29.4,1,28.7,1,27.8,1
9/5/2002 8:15,28.2,1,70.3,1,29.4,1,28.9,1,27.8,1
9/5/2002 8:30,28.3,1,70.5,1,29.3,1,29.1,1,27.8,1
9/5/2002 8:45,28.2,1,70.6,1,29.3,1,29.2,1,27.9,1
9/5/2002 9:00,28.1,1,71.2,1,29.1,1,29.2,1,27.9,1
9/5/2002 9:15,28.1,1,71.4,1,29.1,1,29.2,1,27.9,1
9/5/2002 9:30,28.3,1,71.3,1,29.1,1,29.4,1,27.5,1
9/5/2002 9:45,28.4,1,70.1,1,29.1,1,29.4,1,27.6,1
9/5/2002 10:00,28.4,1,69.9,1,29.1,1,29.5,1,27.6,1
9/5/2002 10:15,28.4,1,70.7,1,29,1,29.4,1,27.5,1
9/5/2002 10:30,28.3,1,71,1,29,1,29.3,1,27.6,1
9/5/2002 10:45,28.3,1,70.6,1,29,1,29.4,1,27.6,1
9/5/2002 11:00,28.2,1,70.4,1,29,1,29.3,1,27.7,1
9/5/2002 11:15,28.3,1,69.9,1,29,1,29.2,1,27.7,1
9/5/2002 11:30,28.3,1,70.4,1,29,1,29.2,1,27.7,1
9/5/2002 11:45,28.4,1,70.2,1,29,1,29.1,1,27.7,1
9/5/2002 12:00,28.4,1,70,1,29,1,29.1,1,27.7,1
9/5/2002 12:15,28.6,1,69.6,1,29.1,1,29.2,1,27.7,1
9/5/2002 12:30,28.6,1,68.3,1,29.1,1,29.3,1,27.8,1
9/5/2002 12:45,28.8,1,68.5,1,29.1,1,29.4,1,27.8,1
9/5/2002 13:00,28.9,1,67.7,1,29.2,1,29.5,1,27.8,1
9/5/2002 13:15,29,1,67,1,29.2,1,29.5,1,27.8,1
9/5/2002 13:30,29.1,1,66.8,1,29.2,1,29.6,1,27.8,1
9/5/2002 13:45,29.2,1,66.4,1,29.2,1,29.6,1,27.8,1
9/5/2002 14:00,29.2,1,66.1,1,29.3,1,29.7,1,27.8,1
9/5/2002 14:15,29.2,1,66.6,1,29.3,1,29.7,1,27.8,1
9/5/2002 14:30,29.2,1,66.9,1,29.2,1,29.7,1,27.9,1
9/5/2002 14:45,29,1,67.1,1,29.2,1,29.6,1,27.4,1
9/5/2002 15:00,29,1,67.3,1,29.2,1,29.6,1,27.5,1
9/5/2002 15:15,28.9,1,67.5,1,29.2,1,29.6,1,27.5,1
9/5/2002 15:30,28.9,1,67.7,1,29.1,1,29.5,1,27.5,1
9/5/2002 15:45,28.8,1,68.6,1,29.1,1,29.5,1,27.8,1
9/5/2002 16:00,28.7,1,68.2,1,29,1,29.4,1,27.9,1
9/5/2002 16:15,28.5,1,68.5,1,29,1,29.3,1,27.7,1
9/5/2002 16:30,28.3,1,69.1,1,28.9,1,29.2,1,27.8,1
9/5/2002 16:45,28.3,1,69.1,1,28.8,1,29,1,27.9,1
9/5/2002 17:00,28.1,1,68.9,1,28.7,1,28.9,1,27.9,1
9/5/2002 17:15,28.1,1,68.7,1,28.6,1,28.9,1,27.9,1
9/5/2002 17:30,28,1,68.3,1,28.5,1,28.8,1,27.9,1
9/5/2002 17:45,27.9,1,68.6,1,28.4,1,28.7,1,27.9,1
9/5/2002 18:00,27.7,1,69.2,1,28.2,1,28.6,1,27.9,1
9/5/2002 18:15,27.9,1,71.2,1,28.1,1,28.4,1,28,1
9/5/2002 18:30,28.1,1,69.9,1,28,1,28.2,1,27.5,1
9/5/2002 18:45,28.2,1,69.8,1,27.8,1,28,1,27.5,1
9/5/2002 19:00,28.3,1,69.3,1,27.7,1,28,1,27.6,1
9/5/2002 19:15,28.3,1,68.3,1,27.5,1,28,1,27.6,1
9/5/2002 19:30,28.5,1,68.3,1,27.3,1,28.1,1,27.6,1
9/5/2002 19:45,28.5,1,69.7,1,27.2,1,28.2,1,27.6,1
9/5/2002 20:00,28.6,1,68.4,1,27.1,1,28,1,27.6,1
9/5/2002 20:15,28.4,1,66.2,1,27.2,1,28,1,27.6,1
9/5/2002 20:30,28.2,1,66.3,1,27.2,1,28.1,1,27.6,1
9/5/2002 20:45,28,1,66.7,1,27.3,1,28.1,1,27.7,1
9/5/2002 21:00,27.8,1,67.7,1,27.4,1,28.1,1,27.7,1
9/5/2002 21:15,27.7,1,67.8,1,27.4,1,28.1,1,27.7,1
9/5/2002 21:30,27.5,1,68,1,27.4,1,28.1,1,27.7,1
9/5/2002 21:45,27.4,1,68.2,1,27.4,1,28,1,27.7,1
9/5/2002 22:00,27.5,1,68.7,1,27.4,1,28,1,27.7,1
9/5/2002 22:15,27.7,1,69.5,1,27.4,1,27.9,1,27.7,1
9/5/2002 22:30,27.8,1,69.2,1,27.4,1,27.9,1,27.8,1
9/5/2002 22:45,27.8,1,68.7,1,27.4,1,27.9,1,27.8,1
9/5/2002 23:00,27.9,1,68.4,1,27.3,1,27.9,1,27.8,1
9/5/2002 23:15,27.9,1,67.8,1,27.3,1,27.8,1,27.6,1
9/5/2002 23:30,27.9,1,67.6,1,27.2,1,27.7,1,27.7,1
9/5/2002 23:45,27.9,1,67.7,1,27.2,1,27.6,1,27.7,1